#timestamp,LO_Frequency,Hit,StdDev 
1629158415.5,286046998.7,P
1629158435.3,286047001.1,P
1629158455.1,286047002.8,Y
1629158475.9,286047004.2,P
1629158495.7,286047000.4,N
1629158515.5,286047003.9,N
1629158535.4,286047003.6,N
1629158555.2,286047006.0,Y
1629158575.1,286047002.4,P
1629158576.0,286047002.4,P
1629158595.8,286047002.1,P
1629158615.6,286047001.7,Y
1629158635.5,286046998.2,P
1629158655.3,286046998.3,N
1629158675.2,286046999.9,N
1629158695.9,286047002.8,N
1629158715.7,286047000.1,N
1629158735.6,286047001.9,N
1629158755.4,286047002.0,N
1629158775.2,286047002.5,N
1629158795.1,286047001.6,N
1629158796.0,286047001.6,N
1629158815.8,286047002.8,N
1629158835.7,286047000.1,N
1629158855.5,286047002.6,N
1629158875.3,286047001.6,N
1629158895.2,286047004.1,N
1629158915.0,286047003.5,N
1629158915.9,286047003.5,N
1629158935.7,286047002.0,N
1629158955.6,286047002.3,N
1629158975.4,286047000.6,N
1629158995.3,286047002.1,N
1629159015.1,286047001.8,N
1629159016.0,286047001.8,N
1629159035.8,286047004.2,N
1629159055.7,286047004.4,N
1629159075.5,286047003.9,N
1629159095.3,286047002.1,N
1629159115.2,286047002.6,N
1629159135.0,286047001.3,N
1629159135.9,286047001.3,N
1629159155.8,286047002.8,N
1629159175.6,286047001.4,N
1629159195.4,286047001.9,N
1629159215.3,286046999.9,N
1629159235.1,286047000.6,N
1629159255.8,286046998.1,N
1629159275.7,286047000.9,N
1629159295.5,286047002.4,N
1629159315.4,286047000.5,N
1629159335.2,286046999.8,N
1629159355.0,286047000.1,N
1629159355.9,286047000.1,N
1629159375.8,286046999.9,N
1629159395.6,286047001.8,N
1629159415.4,286047002.0,N
1629159435.3,286047002.7,N
1629159455.1,286046999.8,N
1629159475.9,286047002.5,N
1629159495.7,286046999.7,N
1629159515.5,286047001.3,N
1629159535.4,286047001.3,N
1629159555.2,286046998.2,N
1629159575.0,286047001.0,N
1629159575.9,286047001.0,N
1629159595.8,286047001.0,N
1629159615.6,286047001.8,N
1629159635.5,286047003.2,N
1629159655.3,286047003.9,Y
1629159675.1,286047003.5,P
1629159695.9,286047005.8,P
1629159715.7,286047006.8,P
1629159735.5,286047007.0,Y
1629159755.4,286047001.4,P
1629159775.2,286047004.2,N
1629159795.1,286047003.1,N
1629159796.0,286047003.1,N
1629159815.8,286047003.7,Y
1629159835.6,286047002.7,P
1629159855.5,286047000.6,N
1629159875.3,286046998.5,N
1629159895.2,286046996.9,N
1629159915.9,286047002.6,N
1629159935.7,286047000.1,N
1629159955.6,286047001.5,N
1629159975.4,286047005.6,N
1629159995.2,286047003.9,N
1629160015.1,286047003.9,N
1629160016.0,286047003.9,N
1629160035.8,286047000.2,N
1629160055.7,286047002.1,N
1629160075.5,286047000.5,N
1629160095.3,286047002.8,N
1629160115.2,286047001.0,N
1629160135.0,286047000.8,N
1629160135.9,286047000.8,N
1629160155.8,286047002.6,N
1629160175.6,286047000.8,N
1629160195.4,286046996.6,N
1629160215.3,286046997.9,N
1629160235.1,286046996.5,N
1629160255.8,286046997.6,N
1629160275.7,286046997.1,N
1629160295.5,286046996.6,N
1629160315.4,286046999.4,N
1629160335.2,286046999.5,N
1629160355.0,286046997.6,N
1629160355.9,286046997.6,N
1629160375.8,286046997.2,N
1629160395.6,286046999.6,N
1629160415.4,286047000.7,N
1629160435.3,286046999.8,N
1629160455.1,286046999.7,N
1629160475.9,286047000.3,N
1629160495.7,286047000.0,N
1629160515.5,286047011.9,Y
1629160535.4,286047002.7,P
1629160555.2,286047001.0,N
1629160575.0,286047000.9,N
1629160575.9,286047000.9,N
1629160595.8,286046997.0,Y
1629160615.6,286046997.4,P
1629160635.5,286046997.1,N
1629160655.3,286046999.5,N
1629160675.1,286046997.9,N
1629160695.9,286046997.7,N
1629160715.7,286046996.5,N
1629160735.5,286046996.5,N
1629160755.4,286047000.5,N
1629160775.2,286047002.0,N
1629160795.1,286047002.6,N
1629160796.0,286047002.6,N
1629160815.8,286047000.8,N
1629160835.6,286047002.5,N
1629160855.5,286046999.7,N
1629160875.3,286047003.6,N
1629160895.1,286047003.1,N
1629160915.9,286047001.3,N
1629160935.7,286047003.8,N
1629160955.6,286047002.6,N
1629160975.4,286047002.5,N
1629160995.2,286047003.9,N
1629161015.1,286047003.0,N
1629161016.0,286047003.0,N
1629161035.8,286047005.7,N
1629161055.6,286047003.3,N
1629161075.5,286047001.4,N
1629161095.3,286047003.4,N
1629161115.2,286047001.7,N
1629161135.9,286047005.6,N
1629161155.7,286047005.8,N
1629161175.6,286047005.0,N
1629161195.4,286047005.6,N
1629161215.2,286047003.6,N
1629161235.1,286047003.8,N
1629161236.0,286047003.8,N
1629161255.8,286047000.4,N
1629161275.7,286046999.0,N
1629161295.5,286046997.8,N
1629161315.3,286046998.7,N
1629161335.2,286047000.9,N
1629161355.0,286046999.7,N
1629161355.9,286046999.7,N
1629161375.8,286047005.8,N
1629161395.6,286047005.1,N
1629161415.4,286047006.4,N
1629161435.3,286047007.1,Y
1629161455.1,286047005.1,P
1629161475.9,286047005.2,P
1629161495.7,286047003.0,N
1629161515.5,286047005.7,Y
1629161535.4,286046998.9,P
1629161555.2,286046999.5,N
1629161575.0,286046997.9,N
1629161575.9,286046997.9,N
1629161595.8,286046997.7,N
1629161615.6,286046997.6,N
1629161635.5,286046997.7,N
1629161655.3,286046993.3,Y
1629161675.1,286046996.5,P
1629161695.9,286046997.8,N
1629161715.7,286046996.3,P
1629161735.6,286046997.5,N
1629161755.4,286046999.2,N
1629161775.2,286046999.0,N
1629161795.1,286046998.5,N
1629161796.0,286046998.5,N
1629161815.8,286046996.6,Y
1629161835.6,286046998.2,P
1629161855.5,286047001.1,P
1629161875.3,286047000.7,N
1629161895.2,286046996.7,N
1629161915.9,286046994.9,Y
1629161935.7,286046998.8,P
1629161955.6,286046997.0,P
1629161975.4,286046997.4,N
1629161995.2,286046997.2,Y
